User: anonymous
Location: Caltech
(34.1382°N, 118.1253°W)
Time: 00:58:09
(UTC-07:00)
Language:

Spot 4 Rocket - Orbit

View from above orbital plane
View from above orbital plane
View from above satellite
View from above satellite

Ground track
Ground track

The orbit data is extracted from the following two-line orbital elements,

1 25261U 98017B   14293.99951454  .00000855  00000-0  32777-3 0  7070
2 25261 098.4239 244.2957 0004574 089.6278 312.2236 14.33027227866039
Epoch (UTC): 20 October 2014 23:59:18
Eccentricity: 0.0004574
inclination: 98.4239°
perigee height: 778 km
apogee height: 785 km
right ascension of ascending node: 244.2957°
argument of perigee: 89.6278°
revolutions per day: 14.33027227
mean anomaly at epoch: 312.2236°
orbit number at epoch: 86603

The dashed part of the orbit path shows where the satellite is in the earth's shadow,  

DLR